• In Hungary
  • List of Countries
  • For 7 days
  • Water Temperature
  • Satellite Maps
  • Weather Map
  • News
  • Weather Widgets
  • user-avatar
    Login

    Hourly Weather Artashat

    Today, 21 October, Sunday

    Time Temperature Precipitation Wind Pressure Humidity
    00:00 +9°C° 0 mm 1 mps 602 mmHg 58%
    01:00 +9°C° 0 mm 1 mps 602 mmHg 60%
    02:00 +8°C° 0 mm 1 mps 602 mmHg 61%
    03:00 +8°C° 0 mm 1 mps 602 mmHg 62%
    04:00 +8°C° 0 mm 1 mps 602 mmHg 63%
    05:00 +7°C° 0 mm 1 mps 602 mmHg 64%
    06:00 +7°C° 0 mm 1 mps 601 mmHg 66%
    07:00 +9°C° 0 mm 1 mps 602 mmHg 59%
    08:00 +11°C° 0 mm 1 mps 603 mmHg 52%
    09:00 +12°C° 0 mm 1 mps 604 mmHg 45%
    10:00 +13°C° 0 mm 1 mps 604 mmHg 41%
    11:00 +14°C° 0 mm 2 mps 605 mmHg 38%
    12:00 +15°C° 0 mm 2 mps 605 mmHg 34%
    13:00 +16°C° 0 mm 2 mps 605 mmHg 33%
    14:00 +16°C° 0 mm 2 mps 604 mmHg 33%
    15:00 +16°C° 0 mm 3 mps 604 mmHg 32%
    16:00 +15°C° 0 mm 2 mps 604 mmHg 35%
    17:00 +13°C° 0 mm 2 mps 603 mmHg 39%
    18:00 +12°C° 0 mm 2 mps 603 mmHg 42%
    19:00 +10°C° 0 mm 2 mps 603 mmHg 45%
    20:00 +11°C° 0 mm 1 mps 603 mmHg 47%
    21:00 +10°C° 0 mm 1 mps 603 mmHg 50%
    22:00 +10°C° 0 mm 1 mps 602 mmHg 51%
    23:00 +9°C° 0 mm 1 mps 602 mmHg 53%

    Tomorrow, 22 October, Monday

    Time Temperature Precipitation Wind Pressure Humidity
    00:00 +8°C° 0 mm 1 mps 602 mmHg 54%
    01:00 +8°C° 0 mm 1 mps 602 mmHg 55%
    02:00 +8°C° 0 mm 1 mps 602 mmHg 56%
    03:00 +8°C° 0 mm 1 mps 602 mmHg 57%
    04:00 +7°C° 0 mm 1 mps 602 mmHg 58%
    05:00 +7°C° 0 mm 1 mps 602 mmHg 59%
    06:00 +7°C° 0 mm 1 mps 602 mmHg 60%
    07:00 +9°C° 0 mm 1 mps 603 mmHg 55%
    08:00 +10°C° 0 mm 1 mps 604 mmHg 50%
    09:00 +12°C° 0 mm 1 mps 604 mmHg 46%
    10:00 +13°C° 0 mm 1 mps 605 mmHg 43%
    11:00 +14°C° 0 mm 1 mps 605 mmHg 40%
    12:00 +15°C° 0 mm 1 mps 605 mmHg 37%
    13:00 +15°C° 0 mm 2 mps 605 mmHg 37%
    14:00 +15°C° 0 mm 2 mps 605 mmHg 36%
    15:00 +16°C° 0 mm 2 mps 604 mmHg 36%
    16:00 +14°C° 0 mm 2 mps 604 mmHg 40%
    17:00 +13°C° 0 mm 1 mps 603 mmHg 45%
    18:00 +11°C° 0 mm 1 mps 603 mmHg 49%
    19:00 +11°C° 0 mm 1 mps 603 mmHg 51%
    20:00 +10°C° 0 mm 1 mps 603 mmHg 53%
    21:00 +10°C° 0 mm 1 mps 603 mmHg 55%
    22:00 +9°C° 0 mm 1 mps 603 mmHg 57%
    23:00 +9°C° 0 mm 1 mps 603 mmHg 58%

    Day after tomorrow, 23 October, Tuesday

    Time Temperature Precipitation Wind Pressure Humidity
    00:00 +9°C° 0 mm 1 mps 603 mmHg 59%
    01:00 +8°C° 0 mm 1 mps 603 mmHg 61%
    02:00 +8°C° 0 mm 1 mps 603 mmHg 63%
    03:00 +8°C° 0 mm 1 mps 602 mmHg 65%
    04:00 +7°C° 0 mm 1 mps 602 mmHg 65%
    05:00 +7°C° 0 mm 1 mps 602 mmHg 66%
    06:00 +7°C° 0 mm 1 mps 602 mmHg 67%
    07:00 +9°C° 0 mm 1 mps 603 mmHg 61%
    08:00 +10°C° 0 mm 1 mps 604 mmHg 54%
    09:00 +12°C° 0 mm 1 mps 605 mmHg 48%
    10:00 +13°C° 0 mm 2 mps 605 mmHg 44%
    11:00 +14°C° 0 mm 2 mps 605 mmHg 40%
    12:00 +15°C° 0 mm 2 mps 605 mmHg 36%
    13:00 +14°C° 0 mm 3 mps 605 mmHg 35%
    14:00 +16°C° 0 mm 3 mps 604 mmHg 34%
    15:00 +16°C° 0 mm 3 mps 604 mmHg 33%
    16:00 +13°C° 0 mm 3 mps 604 mmHg 37%
    17:00 +13°C° 0 mm 2 mps 603 mmHg 42%
    18:00 +12°C° 0 mm 2 mps 603 mmHg 47%
    19:00 +10°C° 0 mm 2 mps 603 mmHg 49%
    20:00 +9°C° 0 mm 2 mps 602 mmHg 52%
    21:00 +10°C° 0 mm 1 mps 602 mmHg 54%
    22:00 +9°C° 0 mm 2 mps 602 mmHg 54%
    23:00 +9°C° 0 mm 2 mps 602 mmHg 55%

    24 October, Wednesday

    Time Temperature Precipitation Wind Pressure Humidity
    00:00 +9°C° 0 mm 2 mps 602 mmHg 56%
    01:00 +8°C° 0.1 mm 2 mps 602 mmHg 57%
    02:00 +8°C° 0.1 mm 2 mps 602 mmHg 59%
    03:00 +8°C° 0.1 mm 2 mps 601 mmHg 61%
    04:00 +8°C° 0 mm 2 mps 601 mmHg 62%
    05:00 +7°C° 0 mm 2 mps 601 mmHg 64%
    06:00 +7°C° 0 mm 2 mps 601 mmHg 65%
    07:00 +8°C° 0 mm 2 mps 601 mmHg 61%
    08:00 +10°C° 0 mm 2 mps 602 mmHg 56%
    09:00 +12°C° 0 mm 2 mps 602 mmHg 51%
    10:00 +11°C° 0.2 mm 3 mps 602 mmHg 50%
    11:00 +12°C° 0.2 mm 3 mps 602 mmHg 48%
    12:00 +13°C° 0.2 mm 3 mps 602 mmHg 47%
    13:00 +13°C° 0.2 mm 3 mps 601 mmHg 47%
    14:00 +13°C° 0.2 mm 3 mps 601 mmHg 47%
    15:00 +13°C° 0.2 mm 3 mps 600 mmHg 47%
    16:00 +12°C° 0.3 mm 3 mps 600 mmHg 51%
    17:00 +12°C° 0.3 mm 2 mps 600 mmHg 55%
    18:00 +12°C° 0.3 mm 2 mps 599 mmHg 58%
    19:00 +10°C° 0.3 mm 2 mps 599 mmHg 61%
    20:00 +10°C° 0.3 mm 2 mps 599 mmHg 63%
    21:00 +9°C° 0.3 mm 2 mps 599 mmHg 66%
    22:00 +9°C° 0.1 mm 2 mps 598 mmHg 67%
    23:00 +8°C° 0.1 mm 2 mps 598 mmHg 68%

    25 October, Thursday

    Time Temperature Precipitation Wind Pressure Humidity
    00:00 +8°C° 0.1 mm 2 mps 598 mmHg 68%
    01:00 +8°C° 0 mm 2 mps 597 mmHg 69%
    02:00 +7°C° 0 mm 2 mps 597 mmHg 70%
    03:00 +7°C° 0 mm 2 mps 597 mmHg 71%
    04:00 +7°C° 0 mm 2 mps 597 mmHg 71%
    05:00 +7°C° 0 mm 2 mps 596 mmHg 70%
    06:00 +7°C° 0 mm 2 mps 596 mmHg 70%
    07:00 +8°C° 0.1 mm 3 mps 597 mmHg 64%
    08:00 +10°C° 0.1 mm 3 mps 597 mmHg 58%
    09:00 +11°C° 0.1 mm 4 mps 598 mmHg 52%
    10:00 +12°C° 0.1 mm 5 mps 598 mmHg 48%
    11:00 +13°C° 0.1 mm 5 mps 598 mmHg 44%
    12:00 +15°C° 0.1 mm 6 mps 598 mmHg 41%
    13:00 +14°C° 0.4 mm 6 mps 597 mmHg 43%
    14:00 +14°C° 0.4 mm 6 mps 597 mmHg 46%
    15:00 +13°C° 0.4 mm 5 mps 596 mmHg 48%
    16:00 +12°C° 0.2 mm 5 mps 596 mmHg 54%
    17:00 +11°C° 0.2 mm 4 mps 595 mmHg 60%
    18:00 +10°C° 0.2 mm 3 mps 595 mmHg 66%
    19:00 +10°C° 0.2 mm 3 mps 595 mmHg 67%
    20:00 +9°C° 0.2 mm 3 mps 595 mmHg 69%
    21:00 +9°C° 0.2 mm 3 mps 595 mmHg 71%
    22:00 +9°C° 0.7 mm 3 mps 595 mmHg 71%
    23:00 +9°C° 0.7 mm 3 mps 594 mmHg 72%

    26 October, Friday

    Time Temperature Precipitation Wind Pressure Humidity
    00:00 +8°C° 0.7 mm 3 mps 594 mmHg 72%
    01:00 +8°C° 0 mm 3 mps 594 mmHg 73%
    02:00 +8°C° 0 mm 3 mps 594 mmHg 74%
    03:00 +7°C° 0 mm 3 mps 593 mmHg 75%
    04:00 +7°C° 0 mm 3 mps 593 mmHg 75%
    05:00 +7°C° 0 mm 3 mps 593 mmHg 74%
    06:00 +6°C° 0 mm 4 mps 593 mmHg 74%
    07:00 +7°C° 0 mm 4 mps 594 mmHg 67%
    08:00 +9°C° 0 mm 5 mps 595 mmHg 61%
    09:00 +10°C° 0 mm 6 mps 596 mmHg 54%
    10:00 +11°C° 0.2 mm 6 mps 596 mmHg 51%
    11:00 +13°C° 0.2 mm 6 mps 596 mmHg 47%
    12:00 +14°C° 0.2 mm 7 mps 597 mmHg 44%
    13:00 +13°C° 0.4 mm 6 mps 596 mmHg 45%
    14:00 +13°C° 0.4 mm 5 mps 596 mmHg 46%
    15:00 +13°C° 0.4 mm 5 mps 596 mmHg 47%
    16:00 +11°C° 0.2 mm 4 mps 596 mmHg 51%
    17:00 +10°C° 0.2 mm 3 mps 596 mmHg 56%
    18:00 +9°C° 0.2 mm 2 mps 596 mmHg 60%
    19:00 +8°C° 0.1 mm 2 mps 596 mmHg 62%
    20:00 +8°C° 0.1 mm 2 mps 596 mmHg 63%
    21:00 +7°C° 0.1 mm 2 mps 597 mmHg 65%
    22:00 +5°C° 0.3 mm 3 mps 597 mmHg 67%
    23:00 +5°C° 0.3 mm 3 mps 597 mmHg 68%
    Show more